TimeCST,TemperatureF,Dew PointF,Humidity,Sea Level PressureIn,VisibilityMPH,Wind Direction,Wind SpeedMPH,Gust SpeedMPH,PrecipitationIn,Events,Conditions,WindDirDegrees,DateUTC
12:15 AM,50.0,35.6,58,29.88,10.0,ENE,6.9,-,N/A,,Clear,60,2013-02-25 06:15:00
12:35 AM,50.0,35.6,58,29.88,10.0,ENE,3.5,-,N/A,,Clear,70,2013-02-25 06:35:00
12:55 AM,50.0,35.6,58,29.88,10.0,East,5.8,-,N/A,,Clear,90,2013-02-25 06:55:00
1:15 AM,50.0,35.6,58,29.88,10.0,East,6.9,-,N/A,,Clear,80,2013-02-25 07:15:00
1:35 AM,50.0,35.6,58,29.85,10.0,ENE,8.1,-,N/A,,Clear,70,2013-02-25 07:35:00
1:55 AM,50.0,35.6,58,29.85,10.0,East,6.9,-,N/A,,Clear,90,2013-02-25 07:55:00
2:15 AM,50.0,35.6,58,29.84,10.0,East,8.1,-,N/A,,Scattered Clouds,80,2013-02-25 08:15:00
2:35 AM,50.0,35.6,58,29.82,10.0,ENE,8.1,-,N/A,,Scattered Clouds,60,2013-02-25 08:35:00
2:55 AM,50.0,35.6,58,29.82,10.0,ENE,5.8,-,N/A,,Scattered Clouds,70,2013-02-25 08:55:00
3:15 AM,50.0,35.6,58,29.82,10.0,ENE,3.5,-,N/A,,Overcast,70,2013-02-25 09:15:00
3:35 AM,50.0,35.6,58,29.82,10.0,ENE,3.5,-,N/A,,Overcast,60,2013-02-25 09:35:00
4:15 AM,50.0,37.4,62,29.79,10.0,East,10.4,-,N/A,,Drizzle,100,2013-02-25 10:15:00
4:35 AM,48.2,39.2,71,29.80,10.0,East,9.2,-,0.02,Rain,Light Rain,100,2013-02-25 10:35:00
5:15 AM,50.0,39.2,66,29.80,10.0,East,6.9,-,N/A,,Overcast,80,2013-02-25 11:15:00
5:55 AM,50.0,37.4,62,29.79,10.0,East,12.7,-,N/A,,Mostly Cloudy,90,2013-02-25 11:55:00
6:15 AM,50.0,37.4,62,29.80,10.0,East,9.2,-,N/A,,Mostly Cloudy,80,2013-02-25 12:15:00
6:35 AM,50.0,37.4,62,29.80,10.0,ENE,8.1,-,N/A,,Overcast,70,2013-02-25 12:35:00
6:55 AM,50.0,39.2,66,29.80,10.0,ENE,6.9,-,N/A,,Overcast,70,2013-02-25 12:55:00
7:15 AM,50.0,39.2,66,29.82,10.0,NE,4.6,-,N/A,,Overcast,50,2013-02-25 13:15:00
7:35 AM,50.0,41.0,71,29.82,10.0,NNE,4.6,-,N/A,,Overcast,30,2013-02-25 13:35:00
7:55 AM,48.2,41.0,76,29.81,10.0,ENE,8.1,-,N/A,,Overcast,60,2013-02-25 13:55:00
8:15 AM,50.0,41.0,71,29.81,10.0,ENE,4.6,-,N/A,,Overcast,60,2013-02-25 14:15:00
8:35 AM,50.0,41.0,71,29.82,10.0,ENE,4.6,-,N/A,,Overcast,60,2013-02-25 14:35:00
8:55 AM,51.8,41.0,67,29.83,10.0,Calm,Calm,-,N/A,,Overcast,0,2013-02-25 14:55:00
9:15 AM,51.8,41.0,67,29.82,10.0,East,10.4,-,N/A,,Overcast,90,2013-02-25 15:15:00
9:55 AM,53.6,41.0,62,29.81,10.0,East,10.4,-,N/A,,Overcast,100,2013-02-25 15:55:00
10:15 AM,53.6,42.8,67,29.81,10.0,ESE,10.4,17.3,N/A,,Overcast,110,2013-02-25 16:15:00
10:35 AM,53.6,44.6,72,29.80,10.0,ESE,10.4,17.3,N/A,,Overcast,120,2013-02-25 16:35:00
10:55 AM,55.4,44.6,67,29.79,10.0,ESE,12.7,18.4,N/A,,Overcast,110,2013-02-25 16:55:00
11:15 AM,55.4,46.4,72,29.80,10.0,East,12.7,16.1,N/A,,Overcast,100,2013-02-25 17:15:00
11:35 AM,55.4,46.4,72,29.80,10.0,ESE,6.9,-,N/A,,Overcast,110,2013-02-25 17:35:00
11:55 AM,55.4,48.2,77,29.79,10.0,ESE,6.9,-,N/A,,Overcast,120,2013-02-25 17:55:00
12:15 PM,55.4,48.2,77,29.77,10.0,East,9.2,-,N/A,,Overcast,90,2013-02-25 18:15:00
12:35 PM,55.4,50.0,82,29.76,10.0,ESE,11.5,-,N/A,,Overcast,120,2013-02-25 18:35:00
12:55 PM,55.4,50.0,82,29.74,10.0,ESE,10.4,16.1,N/A,,Overcast,120,2013-02-25 18:55:00
1:15 PM,55.4,50.0,82,29.73,10.0,East,12.7,-,N/A,,Overcast,90,2013-02-25 19:15:00
1:35 PM,57.2,50.0,77,29.71,10.0,ESE,12.7,-,N/A,,Overcast,110,2013-02-25 19:35:00
1:55 PM,59.0,50.0,72,29.70,10.0,ESE,13.8,18.4,N/A,,Overcast,110,2013-02-25 19:55:00
2:15 PM,59.0,51.8,77,29.69,10.0,ESE,11.5,17.3,N/A,,Overcast,120,2013-02-25 20:15:00
2:35 PM,59.0,51.8,77,29.67,10.0,East,12.7,-,N/A,,Overcast,100,2013-02-25 20:35:00
2:55 PM,59.0,51.8,77,29.66,10.0,East,11.5,17.3,N/A,,Overcast,100,2013-02-25 20:55:00
3:15 PM,59.0,51.8,77,29.65,10.0,East,10.4,-,N/A,,Overcast,100,2013-02-25 21:15:00
3:35 PM,57.2,53.6,88,29.63,10.0,ESE,12.7,19.6,N/A,,Overcast,110,2013-02-25 21:35:00
3:55 PM,57.2,53.6,88,29.63,10.0,ESE,15.0,19.6,N/A,,Overcast,120,2013-02-25 21:55:00
4:15 PM,57.2,53.6,88,29.63,10.0,ESE,10.4,21.9,N/A,,Overcast,120,2013-02-25 22:15:00
4:35 PM,57.2,53.6,88,29.62,10.0,ESE,13.8,17.3,N/A,,Overcast,120,2013-02-25 22:35:00
4:55 PM,57.2,53.6,88,29.59,10.0,ESE,17.3,21.9,N/A,,Overcast,110,2013-02-25 22:55:00
5:15 PM,59.0,53.6,82,29.59,10.0,ESE,13.8,20.7,N/A,,Overcast,120,2013-02-25 23:15:00
5:35 PM,59.0,53.6,82,29.58,10.0,ESE,12.7,24.2,N/A,,Overcast,120,2013-02-25 23:35:00
5:55 PM,57.2,53.6,88,29.57,10.0,ESE,12.7,25.3,0.01,Rain,Light Rain,120,2013-02-25 23:55:00
6:15 PM,55.4,53.6,94,29.58,10.0,SE,17.3,25.3,N/A,Rain,Light Rain,130,2013-02-26 00:15:00
6:35 PM,55.4,53.6,94,29.56,10.0,ESE,16.1,25.3,0.01,Rain,Light Rain,120,2013-02-26 00:35:00
6:55 PM,55.4,53.6,94,29.55,10.0,ESE,17.3,23.0,0.01,Rain,Light Rain,120,2013-02-26 00:55:00
7:15 PM,55.4,53.6,94,29.54,10.0,ESE,15.0,26.5,0.01,Rain,Light Rain,120,2013-02-26 01:15:00
7:35 PM,55.4,53.6,94,29.52,10.0,SE,19.6,28.8,0.01,Rain,Light Rain,130,2013-02-26 01:35:00
7:55 PM,55.4,53.6,94,29.51,10.0,ESE,15.0,28.8,0.01,Rain,Light Rain,120,2013-02-26 01:55:00
8:15 PM,55.4,53.6,94,29.50,10.0,SE,16.1,28.8,0.01,Rain,Light Rain,130,2013-02-26 02:15:00
8:35 PM,55.4,53.6,94,29.49,10.0,ESE,15.0,26.5,0.04,Rain,Light Rain,120,2013-02-26 02:35:00
8:55 PM,55.4,53.6,94,29.48,10.0,SE,17.3,27.6,0.05,Rain,Light Rain,140,2013-02-26 02:55:00
9:15 PM,55.4,53.6,94,29.47,10.0,SE,15.0,24.2,N/A,,Overcast,130,2013-02-26 03:15:00
9:35 PM,55.4,53.6,94,29.45,10.0,ESE,20.7,31.1,N/A,Rain,Rain,120,2013-02-26 03:35:00
9:55 PM,55.4,53.6,94,29.45,5.0,SE,17.3,29.9,0.06,Rain,Light Rain,140,2013-02-26 03:55:00
10:15 PM,55.4,53.6,94,29.45,10.0,SE,20.7,31.1,0.01,Rain,Light Rain,140,2013-02-26 04:15:00
10:35 PM,55.4,53.6,94,29.44,5.0,SSE,17.3,26.5,0.02,Rain,Light Rain,150,2013-02-26 04:35:00
10:55 PM,55.4,53.6,94,29.44,7.0,SSE,15.0,29.9,0.03,Rain,Light Rain,150,2013-02-26 04:55:00
11:15 PM,55.4,53.6,94,29.46,7.0,WSW,8.1,18.4,0.01,Rain,Heavy Rain,240,2013-02-26 05:15:00
11:35 PM,55.4,53.6,94,29.48,2.5,WSW,6.9,-,0.20,Rain,Heavy Rain,250,2013-02-26 05:35:00
11:55 PM,53.6,53.6,100,29.46,7.0,Calm,Calm,-,0.24,Rain,Rain,0,2013-02-26 05:55:00